Погода в Ворогове

Россия / Красноярский край     61°01′56″N   89°36′44″E
темп.,
°C
ветер,
м/с
пор.,
м/с
влажн.,
%
обл.,
%
осадки,
мм/ч
давл.,
гПа
погр.,
м
16 июня, ср
ср1601:00+13юв389899 1.6 1009315
04:00+13ююв41197100 0.0 1010475
07:00+13ююв41094100 0.1 1010570
10:00+13ююв41092100 0.0 1011586
13:00+18ю576796 0.1 1010949
16:00+20ю4661100 0.0 10101199
19:00+21ююв566028 0.0 10081074
22:00+16ююв3878100 0.1 1009340
17 июня, чт
чт1701:00+14ююв3109498 0.6 1008338
04:00+12юв269893 0.0 1008156
07:00+14юв399498 0.2 1008464
10:00+19ююв467187 0.0 1007909
13:00+21ю4762100 0.1 10061419
16:00+20ю4675100 1.1 1006983
19:00+21ююв456736 1.4 1005867
22:00+18юв267845 0.0 1004145
18 июня, пт
пт1801:00+14юв249130 0.0 100479
04:00+15в238150 0.0 100489
07:00+18юв38685 0.0 1003642
10:00+21ю466188 0.0 10031264
13:00+22ю465887 0.0 10021338
16:00+24ю465053 0.0 10021649
19:00+21ю266983 0.4 1002216
22:00+19ю397416 0.0 1001308
19 июня, сб
сб1901:00+14юв288959 0.0 1002164
04:00+13ююв3107898 0.0 1002218
07:00+17ю386094 0.0 1002333
10:00+21ю4748100 0.0 10021048
13:00+26ю473692 0.0 10001594
16:00+28ююз45307 0.0 9992273
19:00+27юз343495 0.0 9991413
22:00+19ссв386597 0.0 999271
20 июня, вс
вс2001:00+14ссз3681100 0.0 999164
04:00+14ссв1282100 0.0 99950
07:00+19ююв266693 0.0 999353
10:00+18ююв2870100 0.0 999382
13:00+25ююз575264 0.1 9981678
16:00+25ююз465449 0.3 9981457
19:00+24юз125412 0.4 9991197
22:00+19зюз237669 0.0 100075